Wind_Speed
39 39 34 32 35 35 37 34 34 32 38 37 37 37 37 32 30 29 29 29 28 29 29 29 29 29 28 29 28 28 29 29 28 29 29 27 25 25 27 30 32 35 34 36
43 40 35 37 38 37 37 38 37 35 42 41 38 40 36 36 30 33 34 31 31 29 32 32 32 32 30 30 30 31 32 32 30 29 28 26 27 28 30 32 32 35 38 40
45 41 39 40 39 42 40 41 38 40 44 42 40 41 37 36 36 34 33 36 36 32 33 33 33 33 33 33 34 34 34 33 32 31 30 30 31 32 33 35 38 40 42 44
49 42 45 41 41 41 42 39 40 38 41 42 42 48 38 36 38 37 33 40 40 36 34 33 33 33 33 35 36 37 37 35 34 34 32 32 34 35 38 41 43 45 45 45
50 47 46 43 38 41 41 38 39 38 41 46 44 49 37 33 35 35 35 40 41 39 36 34 34 34 35 36 37 39 37 36 35 34 34 36 38 39 43 46 49 50 47 47
50 48 45 41 38 40 40 39 41 43 44 52 42 44 53 36 37 37 36 38 39 37 36 35 34 35 35 36 37 37 36 35 36 37 39 41 43 46 50 52 53 53 50 51
46 48 48 43 41 42 42 42 44 48 50 51 47 49 49 43 40 37 36 36 36 35 35 34 35 34 35 36 37 36 36 37 39 41 43 44 48 52 54 55 55 53 53 56
46 46 43 38 40 38 44 44 45 48 51 53 53 52 47 45 41 34 33 32 33 32 32 32 34 34 36 36 36 38 40 41 43 45 47 50 53 55 56 57 55 55 58 61
41 45 43 38 38 41 45 48 40 50 52 55 55 52 49 43 35 33 33 31 29 31 32 33 34 35 33 36 38 40 42 45 46 49 52 55 58 59 58 57 58 60 61 64
51 49 50 46 45 48 50 47 48 52 56 58 56 51 47 42 38 35 33 32 30 30 27 29 32 35 37 37 38 40 42 47 50 51 54 58 60 61 60 60 62 63 66 69
51 53 52 50 50 46 50 53 54 54 57 59 56 48 48 45 45 40 35 32 31 29 28 30 31 34 37 41 42 44 46 49 52 55 59 61 62 62 63 65 66 68 71 74
54 55 57 55 55 59 59 57 55 54 54 54 57 46 45 46 44 39 35 34 34 34 34 35 36 36 40 45 48 49 51 52 55 59 62 64 66 66 67 69 71 73 75 76
56 57 55 58 59 59 56 54 51 46 50 52 56 46 48 43 43 41 38 40 40 39 38 39 40 45 49 52 54 56 57 59 60 60 64 66 67 69 71 74 75 75 76 78
57 59 59 61 59 58 56 51 49 51 55 53 51 49 46 42 42 39 40 44 43 43 42 45 50 53 55 56 58 61 63 63 64 65 67 68 70 72 74 75 74 76 78 79
65 65 64 62 57 58 59 57 57 55 51 53 46 49 43 44 44 46 48 50 47 46 50 54 56 59 61 60 62 64 67 67 67 68 69 70 72 74 74 73 76 79 81 82
62 61 61 62 58 57 58 60 58 59 55 52 49 50 48 45 46 49 51 52 53 54 56 58 60 62 64 64 66 67 67 69 70 69 69 71 74 74 74 75 80 82 82 84
58 57 55 57 56 55 60 54 55 55 55 52 53 45 47 47 50 50 51 53 54 56 59 63 64 66 68 67 66 65 68 70 66 68 69 71 71 75 77 79 81 81 83 85
60 60 62 62 63 66 56 52 53 57 55 57 52 47 50 53 51 53 55 56 55 56 59 63 65 65 63 63 64 66 66 66 66 67 67 70 73 77 80 81 81 83 82 81
64 63 66 68 70 66 61 59 60 61 61 60 59 59 59 58 58 59 58 55 55 58 59 59 59 56 57 59 60 61 62 62 62 64 68 73 76 78 78 80 80 79 79 81
65 65 64 61 64 69 64 60 60 61 66 62 59 59 58 59 62 59 57 59 60 59 56 54 57 57 58 62 63 63 61 61 63 68 71 74 75 77 76 75 76 78 80 81
57 58 61 60 62 63 61 58 60 64 62 62 62 60 60 60 60 60 59 59 58 54 51 53 57 61 62 62 60 59 62 63 67 70 72 74 73 72 72 75 77 78 80 74
58 59 61 61 60 64 60 61 61 61 60 60 59 58 58 58 56 55 54 54 54 54 54 56 59 60 58 58 60 63 65 68 70 72 73 73 70 72 74 76 78 75 70 70
55 56 56 57 60 62 63 62 62 62 62 58 57 57 54 54 54 54 55 55 54 54 53 52 52 56 60 62 66 68 69 70 72 73 71 71 71 73 76 75 69 69 70 70
53 55 58 57 57 57 57 56 55 55 57 58 58 57 57 56 55 54 53 54 54 55 56 59 64 65 63 65 64 66 69 71 70 71 70 71 74 75 70 67 68 68 68 69
58 56 56 57 55 54 54 53 52 50 50 50 52 52 52 52 52 53 54 55 58 61 66 66 66 64 63 64 66 68 69 70 69 71 73 74 71 66 66 67 66 67 68 68
64 66 65 62 59 58 55 54 53 53 52 52 52 53 54 55 57 58 60 63 65 66 66 65 62 63 64 66 68 69 69 70 72 73 68 65 65 65 65 65 66 67 67 67
Wind_Direction
265 270 276 272 271 273 276 279 279 277 276 276 276 272 272 266 264 265 261 265 271 273 274 276 271 267 265 259 261 266 268 266 262 259 255 262 270 275 281 286 285 286 288 288
268 273 272 270 273 274 274 276 276 273 275 272 271 269 265 268 264 264 265 266 268 273 275 275 273 270 268 266 268 273 274 273 270 270 267 267 272 279 286 290 291 294 294 295
270 271 270 273 275 275 274 273 272 270 270 271 271 266 265 267 270 267 268 269 270 274 273 273 272 268 269 271 273 276 277 274 272 269 264 261 270 280 285 291 294 296 298 298
268 271 275 273 272 271 269 269 268 270 270 273 269 270 265 269 269 270 275 275 272 274 274 271 269 269 271 272 275 279 280 274 271 271 268 268 277 282 289 294 297 296 295 296
270 271 268 269 270 267 270 269 269 266 266 269 267 277 275 270 270 278 274 273 272 273 272 269 269 271 271 272 276 278 276 274 275 272 272 277 284 286 291 292 294 295 297 300
265 268 268 267 267 266 265 264 267 267 266 264 272 275 278 280 277 280 278 278 275 273 268 268 270 270 273 275 278 278 276 275 275 276 278 282 287 291 290 291 293 296 296 301
265 264 266 262 263 262 265 265 266 266 265 270 273 270 277 282 284 282 277 277 274 270 270 269 269 272 274 277 278 276 275 276 278 280 283 285 285 289 287 288 293 296 296 300
261 257 261 268 262 261 254 256 256 264 270 273 273 274 276 278 284 285 279 272 270 268 266 266 272 275 274 277 279 277 275 279 281 282 283 283 286 286 286 289 295 299 301 301
259 260 259 259 261 265 258 253 266 264 268 274 276 279 284 280 281 281 277 271 265 259 258 265 270 272 275 278 278 278 280 283 284 285 285 286 285 286 288 292 298 299 298 298
259 258 262 261 257 259 262 269 268 269 272 275 274 276 277 282 282 277 274 272 271 270 269 264 267 269 270 275 283 284 284 283 283 284 286 286 287 288 291 295 297 297 297 297
258 261 264 263 265 271 268 268 272 270 267 268 275 281 279 277 281 282 280 273 270 271 265 269 272 271 270 275 281 284 285 284 285 285 288 288 289 289 292 295 296 297 296 297
260 259 262 265 268 271 271 268 269 270 274 273 268 270 280 277 279 282 279 276 276 275 272 270 273 275 276 278 279 281 284 285 286 285 288 289 290 289 292 296 298 297 298 299
260 260 261 264 264 266 274 276 275 269 267 270 266 271 278 279 277 278 276 274 274 274 275 278 280 280 283 283 285 287 286 284 285 288 289 290 291 291 293 296 299 299 299 300
257 260 261 264 272 276 274 269 266 266 265 267 271 272 274 275 273 269 268 270 272 276 280 281 281 283 286 287 288 290 290 288 286 288 290 292 292 293 295 298 298 299 300 300
258 263 266 265 270 271 268 267 267 263 266 261 273 264 266 264 261 262 265 268 273 277 278 280 282 285 287 288 288 287 287 286 286 287 291 292 292 294 296 298 300 301 301 301
263 264 263 262 265 264 262 263 261 259 257 268 269 267 267 275 269 266 267 269 272 275 278 280 282 287 286 285 286 285 286 288 286 288 290 292 294 296 297 298 299 300 300 299
260 259 260 264 269 264 263 259 258 266 263 266 266 268 268 267 270 270 270 270 272 275 278 279 280 284 285 283 283 283 285 284 285 289 291 291 293 295 295 297 298 298 298 298
257 257 258 265 268 264 264 255 255 259 260 265 268 271 268 268 269 268 270 272 271 274 276 276 281 280 279 278 279 281 281 283 288 288 291 293 293 294 295 297 296 296 296 297
255 259 260 263 264 264 263 258 257 262 257 261 263 266 269 271 272 271 273 275 273 272 273 276 274 273 274 277 278 277 281 283 287 291 292 291 293 294 294 294 294 294 296 298
250 253 254 256 258 259 263 261 263 265 262 262 268 268 270 270 272 275 274 272 273 276 275 272 270 268 269 273 277 280 284 287 292 291 290 291 292 292 293 292 292 295 296 298
247 250 253 252 257 260 260 260 262 262 265 268 272 273 273 273 272 271 272 274 274 274 272 270 270 272 273 277 281 286 291 293 291 291 291 291 292 291 291 293 294 295 297 296
250 253 254 256 257 256 258 260 260 264 266 267 271 272 271 271 271 271 271 272 272 273 272 270 270 275 281 285 289 292 292 292 292 291 291 290 290 291 292 293 294 295 293 294
247 248 250 251 253 256 258 258 260 263 266 266 265 268 270 271 271 272 272 273 273 274 275 279 283 287 288 290 293 293 291 290 289 289 289 289 290 291 293 293 292 292 293 293
245 248 249 251 252 256 258 260 262 263 262 264 266 268 270 271 272 271 269 269 270 273 276 281 288 291 291 291 289 287 286 286 287 287 288 290 291 292 291 290 290 292 293 294
253 253 252 254 255 259 262 265 264 264 266 268 271 273 274 273 270 269 271 275 278 281 286 289 289 288 287 287 286 285 284 285 286 289 290 290 289 288 289 290 292 293 293 294
262 265 269 272 271 270 266 264 265 268 271 271 270 271 273 274 275 276 279 282 284 285 284 285 285 284 283 283 282 284 285 287 288 288 288 286 287 289 290 292 293 293 295 297
Height
5821 5823 5828 5826 5825 5825 5824 5826 5826 5826 5822 5824 5824 5824 5823 5826 5827 5829 5830 5830 5831 5832 5832 5831 5830 5831 5831 5831 5831 5831 5831 5830 5829 5829 5829 5831 5831 5830 5830 5829 5828 5826 5824 5822
5815 5817 5819 5817 5818 5818 5818 5818 5819 5819 5813 5815 5816 5815 5817 5816 5822 5822 5822 5824 5824 5825 5824 5824 5824 5824 5825 5825 5825 5825 5824 5823 5823 5823 5824 5823 5822 5822 5821 5820 5818 5816 5814 5811
5805 5809 5810 5809 5811 5809 5810 5809 5810 5809 5804 5806 5806 5804 5810 5812 5812 5816 5817 5815 5816 5817 5816 5815 5815 5816 5817 5818 5817 5816 5815 5815 5815 5815 5814 5814 5814 5813 5812 5810 5808 5805 5803 5800
5794 5800 5799 5802 5801 5801 5799 5800 5800 5801 5797 5796 5797 5789 5801 5806 5806 5807 5811 5806 5807 5809 5808 5808 5807 5808 5809 5809 5808 5808 5808 5807 5806 5807 5807 5806 5805 5804 5802 5800 5798 5796 5793 5789
5786 5788 5788 5790 5794 5790 5791 5792 5791 5792 5790 5785 5788 5782 5791 5798 5799 5800 5801 5798 5799 5800 5800 5799 5800 5800 5800 5800 5800 5799 5799 5799 5799 5799 5798 5798 5796 5795 5793 5791 5789 5786 5782 5776
5775 5776 5779 5781 5783 5782 5782 5783 5782 5781 5780 5772 5783 5783 5771 5789 5790 5791 5790 5789 5789 5790 5790 5791 5791 5791 5792 5792 5792 5791 5791 5791 5791 5790 5790 5788 5787 5785 5783 5781 5778 5774 5770 5765
5769 5767 5767 5771 5772 5773 5773 5774 5772 5770 5768 5767 5771 5770 5769 5774 5779 5781 5780 5779 5779 5780 5782 5783 5782 5783 5783 5783 5782 5782 5782 5783 5782 5781 5780 5778 5777 5775 5771 5768 5765 5760 5755 5751
5753 5756 5759 5762 5764 5761 5760 5762 5761 5760 5758 5758 5759 5757 5762 5766 5769 5770 5771 5771 5771 5772 5773 5773 5773 5774 5774 5774 5774 5774 5774 5773 5772 5771 5770 5768 5766 5762 5758 5755 5751 5746 5741 5736
5742 5744 5748 5752 5752 5751 5750 5750 5759 5751 5750 5747 5748 5750 5751 5752 5759 5760 5760 5761 5762 5763 5764 5764 5765 5765 5765 5765 5764 5764 5764 5763 5762 5761 5759 5756 5752 5748 5745 5741 5737 5731 5726 5721
5730 5731 5732 5738 5741 5740 5740 5745 5744 5742 5740 5737 5736 5739 5739 5742 5745 5748 5751 5752 5752 5753 5755 5755 5756 5756 5755 5754 5754 5753 5753 5752 5750 5748 5746 5743 5739 5735 5731 5726 5721 5715 5711 5705
5718 5719 5721 5724 5727 5732 5730 5728 5731 5733 5729 5728 5727 5729 5730 5732 5733 5736 5740 5741 5743 5744 5745 5745 5745 5745 5745 5744 5743 5743 5741 5739 5737 5735 5732 5728 5724 5720 5715 5710 5705 5699 5693 5687
5707 5704 5708 5712 5714 5713 5714 5714 5715 5716 5720 5721 5719 5717 5722 5721 5723 5725 5728 5730 5731 5731 5732 5733 5735 5735 5734 5733 5732 5730 5728 5726 5723 5720 5717 5713 5709 5705 5700 5694 5688 5682 5675 5669
5691 5690 5696 5698 5698 5697 5703 5706 5706 5705 5705 5705 5705 5709 5708 5716 5715 5714 5717 5717 5718 5718 5719 5720 5721 5721 5721 5720 5718 5716 5713 5710 5706 5703 5700 5696 5693 5688 5682 5677 5670 5663 5656 5649
5673 5673 5679 5683 5688 5687 5686 5689 5691 5690 5690 5692 5693 5699 5701 5701 5700 5702 5703 5703 5705 5706 5708 5708 5707 5706 5705 5704 5702 5700 5697 5694 5690 5687 5684 5681 5677 5670 5664 5657 5650 5643 5637 5630
5657 5660 5665 5670 5674 5674 5673 5674 5675 5674 5681 5675 5688 5682 5689 5687 5687 5688 5689 5689 5692 5694 5693 5692 5691 5690 5690 5688 5686 5683 5680 5677 5673 5669 5667 5663 5658 5651 5646 5638 5631 5625 5617 5610
5644 5646 5651 5655 5659 5660 5659 5661 5662 5661 5665 5665 5673 5671 5674 5678 5676 5675 5677 5678 5679 5678 5679 5678 5677 5676 5675 5673 5670 5667 5664 5661 5655 5653 5649 5645 5639 5633 5627 5620 5612 5606 5598 5590
5629 5633 5636 5638 5643 5640 5634 5651 5651 5650 5651 5655 5653 5664 5659 5659 5660 5662 5663 5663 5664 5665 5665 5663 5661 5660 5659 5657 5653 5651 5647 5644 5641 5636 5633 5628 5622 5614 5608 5602 5595 5587 5579 5571
5614 5619 5620 5623 5622 5614 5632 5635 5639 5637 5641 5639 5642 5647 5646 5646 5646 5646 5648 5649 5648 5649 5648 5646 5645 5643 5641 5639 5637 5634 5630 5628 5625 5621 5615 5609 5603 5597 5590 5583 5576 5568 5559 5552
5599 5603 5604 5604 5605 5607 5614 5620 5622 5619 5629 5626 5627 5630 5632 5632 5629 5630 5633 5634 5632 5631 5632 5630 5628 5626 5624 5621 5620 5618 5614 5611 5607 5603 5597 5590 5586 5580 5572 5564 5556 5549 5542 5535
5585 5587 5589 5589 5586 5586 5603 5605 5604 5601 5608 5612 5613 5615 5614 5613 5613 5618 5616 5613 5612 5613 5613 5613 5611 5610 5608 5605 5601 5598 5595 5592 5589 5583 5578 5572 5566 5560 5553 5545 5538 5531 5523 5516
5569 5569 5569 5574 5570 5573 5584 5588 5585 5584 5598 5595 5594 5595 5595 5596 5599 5600 5596 5597 5597 5597 5597 5596 5594 5593 5591 5588 5584 5581 5577 5573 5567 5563 5558 5553 5546 5540 5534 5527 5520 5513 5506 5498
5552 5555 5557 5559 5557 5559 5569 5570 5573 5574 5576 5577 5578 5578 5577 5578 5579 5581 5581 5581 5581 5581 5580 5579 5578 5576 5573 5571 5568 5563 5558 5552 5548 5543 5538 5533 5529 5522 5516 5509 5502 5495 5488 5481
5538 5539 5543 5545 5546 5550 5554 5556 5555 5557 5559 5561 5561 5561 5562 5563 5564 5564 5564 5564 5564 5563 5562 5561 5559 5557 5555 5551 5548 5543 5537 5533 5529 5524 5520 5514 5510 5504 5497 5490 5484 5478 5470 5463
5523 5525 5526 5528 5533 5536 5539 5541 5541 5542 5543 5545 5546 5547 5548 5547 5548 5547 5547 5547 5547 5546 5545 5543 5540 5537 5534 5531 5528 5524 5519 5515 5510 5506 5501 5495 5489 5484 5478 5472 5466 5460 5453 5445
5510 5511 5514 5515 5519 5523 5525 5526 5527 5528 5530 5532 5532 5532 5533 5532 5532 5533 5532 5532 5531 5530 5528 5525 5522 5518 5515 5513 5510 5506 5501 5497 5493 5488 5482 5476 5470 5465 5460 5454 5448 5442 5435 5427
5495 5496 5496 5501 5504 5505 5509 5510 5511 5514 5516 5517 5518 5519 5519 5519 5519 5518 5517 5515 5513 5512 5509 5508 5505 5500 5497 5495 5491 5487 5483 5478 5473 5469 5463 5457 5453 5447 5442 5436 5430 5424 5417 5410